Location: Baili�vre
(50.0696°N, 4.2409°E)
Time: 09:20:40
(UTC+00:00)

CRYOSAT 2 - Pass Details

Date: 08 August 2020
Orbit: 717 x 722 km, 92.0° (Epoch: 20 September)

Event Time Altitude Azimuth Distance (km) Brightness Sun altitude
Rises 22:18:39 0° 6° (N) 3,144 8.7 -21.2°
Reaches altitude 10° 22:20:58 10° 10° (N) 2,219 7.7 -21.4°
Maximum altitude 22:25:51 64° 92° (E) 798 4.4 -21.7°
Enters shadow 22:26:45 53° 142° (SE) 884 4.4 -21.7°
